Find Starlink 11340

NORAD ID: 61690 Int'l Des: 2024-195 Owner: SPXS Country: US Constellation: starlink operational
LEOCIRCULAR

Live Position

Loading 3D Globe...

About Starlink 11340

Description loading...

Upcoming Passes

Passes for default location (London). Set your location on the main map for personalized predictions.

Altitude History

Loading altitude history...

Two-Line Element Set

1 61690U 24195D 26122.25150184 -.00003244 00000-0 -21954-4 0 9992
2 61690 53.1574 122.4005 0001051 87.6073 272.5065 15.69680143 87444
Epoch: May 2, 2026 • Age: 12 hours

Current Status

Altitude 364.9 km
Velocity 7.69 km/s
Sub-Earth Point -17.53°S, 26.89°W
Launch Date Oct 30, 2024
Age 1.5 years
Type internet

Technical Details

Classification Payload
Mass 960.00 kg
Dry Mass 910.00 kg
Total Mass 960.00 kg
Length 0.30 m
Diameter 4.10 m
Span 29.00 m
Shape Box + pan
Manufacturer SPXS
Bus Type Starlink V2MD
Phase Status In Orbit
Owner/State SPXS/US

Most Searched